Location: Buckhorn Peak
(37.6641°N, 120.1241°W)
Time: 17:10:54
(UTC+00:00)

Tiros 1 - Visible Passes

Search period start: 14 December 2025 00:00
Search period end: 24 December 2025 00:00
Orbit: 618 x 650 km, 48.4° (Epoch: 13 December)

Date Brightness Start Highest point End Pass type
(mag) Time Alt. Az. Time Alt. Az. Time Alt. Az.
14 Dec 10.2 01:37:45 10° W 01:40:12 14° SW 01:42:37 10° SSW visible
18 Dec 10.5 13:51:17 10° SE 13:52:42 11° SE 13:54:07 10° ESE visible
19 Dec 9.5 14:10:14 10° S 14:14:08 26° SE 14:18:01 10° ENE visible
20 Dec 8.0 14:31:06 10° SW 14:35:42 55° SE 14:40:20 10° ENE visible
21 Dec 9.7 13:12:28 10° S 13:15:57 20° SE 13:19:26 10° E visible
22 Dec 8.3 13:33:00 10° SSW 13:37:29 44° SE 13:41:59 10° ENE visible
23 Dec 9.7 12:16:44 15° SE 12:17:47 16° SE 12:20:41 10° E visible
23 Dec 7.1 13:54:28 10° SW 13:59:11 90° NW 14:03:57 10° NE visible
